Regional Weather Roundup
Issued by NWS

Home | Current Version | Previous Version | Graphics & Text | Print | Product List | Glossary On
Versions: 1 2 3 4 5 6 7 8 9 10 11 12 13 14 15 16 17 18 19 20 21 22 23 24 25 26 27 28 29 30 31 32 33 34 35 36 37 38 39 40 41 42 43 44 45 46 47 48 49 50
000
ASUS45 KSLC 221410
RWRUT

UTAH REGIONAL WEATHER ROUNDUP
NATIONAL WEATHER SERVICE SALT LAKE CITY UT
700 AM MST WED FEB 22 2017

UTZ001>011-023>025-221500-

NORTHERN UTAH

CITY           SKY/WX    TMP DP  RH WIND       PRES   REMARKS
BRIGHAM CITY     N/A     37  32  84 CALM      30.01S
HILL AFB       MOCLDY    33  33  99 SE5       30.00S WCI  28
LOGAN          CLOUDY    34  32  92 N3        29.99S
OGDEN          CLOUDY    34  33  96 SE7       30.00S WCI  28
SALT LAKE CITY CLOUDY    36  34  92 S3        30.00F
TOOELE VALLEY  CLOUDY    34  32  93 S10       30.00F WCI  26
WENDOVER       CLOUDY    36  27  69 NW5       30.00F WCI  32
HEBER CITY     LGT SNOW  30  30 100 CALM      29.98S
WEST JORDAN    CLOUDY    36  36 100 S7        30.01F WCI  31

$$

UTZ011>015-024>027-221500-

CENTRAL/NORTHEAST UTAH

CITY           SKY/WX    TMP DP  RH WIND       PRES   REMARKS
PROVO AIRPORT  LGT SNOW N/A N/A N/A CALM      30.03F
MOAB/CANYONLAN CLEAR     40  33  76 N5        29.94S
DELTA          CLOUDY    32  32 100 N6        29.99F WCI  26
PRICE          CLOUDY    36  30  79 NE7       29.93S WCI  30
RICHFIELD      PTCLDY    45  28  53 SW13      29.97S
ROOSEVELT      CLOUDY    37  32  81 W10       29.95F WCI  30
VERNAL         LGT RAIN  37  30  75 E6        29.94S WCI  32

$$

UTZ013>016-019>022-027-221500-

SOUTHERN UTAH

CITY           SKY/WX    TMP DP  RH WIND       PRES   REMARKS
BRYCE CANYON   CLOUDY    33  25  72 E6        30.03F WCI  28
CEDAR CITY     CLEAR     36  33  89 NW3       29.97F
MILFORD        CLOUDY    41  35  79 S10       29.97F
ST GEORGE      CLOUDY    49  41  74 VRB5      29.97F
HANKSVILLE     CLEAR     46  32  57 SW3       29.97F
KANAB          CLEAR     45  39  81 SW8       30.05F
BLANDING       MOCLDY    38  35  89 CALM      30.13R

$$

REGIONAL REPORTS     COLORADO/ARIZONA

CITY           SKY/WX    TMP DP  RH WIND       PRES   REMARKS
CRAIG, CO      FLURRIES  31  26  82 SW7       29.98S WCI  24
GRAND JUNCTION PTCLDY    39  33  79 NE6       29.95F WCI  35
RIFLE, CO      PTCLDY    46  31  55 W6        29.94F
MONTROSE, CO   PTCLDY    46  26  45 VRB5      30.01F
CORTEZ, CO     MOCLDY    38  35  89 CALM      30.09S
COLORADO CITY    N/A     36  34  93 CALM      30.04F
PAGE, AZ       MOCLDY    45  36  70 CALM      29.98F
GRAND CANYON   CLOUDY    40  39  97 S12       30.11F WCI  33
KINGMAN, AZ    PTCLDY    46  37  71 VRB5      30.03F
FLAGSTAFF, AZ  CLOUDY    41  38  89 SW10      30.16F

$$

REGIONAL REPORTS    NEVADA/IDAHO/WYOMING

CITY           SKY/WX    TMP DP  RH WIND       PRES   REMARKS
LAS VEGAS, NV  PTCLDY    56  31  38 S14G22    29.91S
ELY, NY        MOCLDY    19  17  92 SE3       29.97F
ELKO, NV       CLOUDY    29  25  85 E6        29.97F WCI  23
POCATELLO, ID  PTCLDY    31  25  78 SW8       29.99F WCI  23
BURLEY, ID     CLEAR     31  24  75 S3        29.97F
FORT BRIDGER,  LGT SNOW  25  25 100 W6        30.00S WCI  18
EVANSTON, WY   LGT SNOW  24  20  84 CALM      29.95F FOG
ROCK SPRINGS,  CLOUDY    26  22  84 SW9       29.96F WCI  17

$$



USA.gov is the U.S. government's official web portal to all federal, state and local government web resources and services.